Precipitable_Water
1.63 1.64 1.59 1.59 1.63 1.67 1.69 1.69 1.68 1.83 1.88 1.97 2.00 2.02 2.04 2.06 2.04 2.01 1.95 1.99 1.99 2.02 2.08 2.06 2.00 1.97 1.75 1.68 1.77 1.82 1.71 1.61 1.27 1.38 1.64 1.93 1.91 1.99 2.01 2.03 2.04 2.03 2.02
1.66 1.65 1.62 1.66 1.64 1.68 1.70 1.84 1.74 1.77 1.83 1.85 1.84 1.87 1.95 2.00 1.94 1.93 1.90 1.99 2.05 2.15 2.20 2.03 1.94 1.81 1.73 1.81 1.75 1.70 1.65 1.60 1.43 1.30 1.54 1.65 2.03 1.99 1.91 1.83 1.78 1.85 1.85
1.72 1.71 1.69 1.67 1.61 1.65 1.70 1.82 1.79 1.77 1.80 1.84 1.83 1.93 1.93 1.93 1.93 1.95 1.96 2.09 2.14 1.94 1.66 1.51 1.44 1.52 1.45 1.49 1.52 1.51 1.45 1.62 1.52 1.43 1.34 1.47 1.61 1.65 1.55 1.59 1.66 1.71 1.78
1.57 1.64 1.57 1.49 1.61 1.71 1.79 1.79 1.77 1.85 1.89 1.91 1.93 1.97 1.95 1.99 2.04 2.04 2.10 1.82 1.66 1.56 1.48 1.40 1.41 1.42 1.37 1.37 1.38 1.36 1.32 1.40 1.48 1.44 1.32 1.44 1.55 1.58 1.52 1.46 1.53 1.70 1.65
1.57 1.62 1.56 1.58 1.63 1.71 1.76 1.92 1.94 1.93 1.92 1.94 1.92 1.95 1.97 2.01 2.03 1.96 1.70 1.54 1.48 1.38 1.35 1.35 1.43 1.50 1.40 1.38 1.35 1.32 1.36 1.37 1.36 1.30 1.25 1.29 1.42 1.50 1.52 1.59 1.57 1.64 1.67
1.64 1.65 1.58 1.55 1.56 1.66 1.75 1.88 1.97 1.99 1.99 1.94 1.92 1.99 1.99 2.13 1.78 1.44 1.53 1.39 1.34 1.23 1.20 1.30 1.36 1.38 1.53 1.45 1.39 1.39 1.36 1.33 1.37 1.35 1.32 1.23 1.28 1.40 1.45 1.48 1.49 1.50 1.34
1.71 1.72 1.47 1.47 1.54 1.67 1.80 1.97 2.07 2.00 1.97 1.87 1.91 1.94 1.94 1.65 1.33 1.36 1.31 1.40 1.31 1.18 1.18 1.25 1.28 1.45 1.54 1.53 1.61 1.45 1.50 1.49 1.47 1.41 1.28 1.32 1.34 1.47 1.51 1.36 1.43 1.53 1.48
1.70 1.64 1.41 1.49 1.53 1.65 1.79 1.84 1.99 2.09 1.96 1.87 1.79 1.86 1.62 1.40 1.35 1.34 1.30 1.43 1.34 1.20 1.30 1.33 1.31 1.33 1.34 1.36 1.37 1.45 1.57 1.69 1.66 1.57 1.50 1.48 1.55 1.63 1.58 1.47 1.44 1.41 1.54
1.56 1.45 1.43 1.49 1.47 1.61 1.68 1.83 1.94 1.92 1.88 1.94 1.82 1.62 1.49 1.29 1.33 1.32 1.39 1.46 1.31 1.27 1.30 1.19 1.11 1.08 1.09 1.19 1.22 1.27 1.34 1.42 1.59 1.58 1.63 1.59 1.55 1.46 1.37 1.32 1.23 1.22 1.29
1.50 1.34 1.38 1.46 1.57 1.58 1.80 1.79 1.80 1.80 1.74 1.75 1.60 1.53 1.47 1.36 1.36 1.34 1.35 1.26 1.11 1.11 1.38 1.29 1.10 1.03 0.96 0.95 0.99 1.07 1.05 1.23 1.30 1.36 1.32 1.30 1.36 1.43 1.51 1.49 1.40 1.15 1.29
1.41 1.34 1.38 1.46 1.58 1.86 1.94 1.74 1.65 1.60 1.58 1.50 1.40 1.48 1.48 1.44 1.34 1.29 1.24 1.13 1.02 1.05 1.03 1.03 1.03 0.89 0.80 0.85 0.93 0.96 0.96 1.03 1.06 1.11 1.15 1.15 1.34 1.34 1.43 1.54 1.61 1.48 1.30
1.42 1.44 1.47 1.59 1.74 1.89 1.81 1.72 1.59 1.56 1.42 1.40 1.38 1.40 1.44 1.42 1.33 1.22 1.14 1.02 0.95 0.97 0.87 0.86 0.82 0.75 0.82 0.89 0.89 0.89 0.96 1.01 1.11 1.10 1.11 1.11 1.21 1.27 1.31 1.41 1.53 1.53 1.59
1.57 1.62 1.67 1.77 1.90 1.94 1.69 1.62 1.55 1.47 1.37 1.39 1.38 1.37 1.34 1.37 1.31 1.23 1.11 0.99 0.92 0.90 0.83 0.79 0.80 0.81 0.81 0.87 0.83 0.83 0.89 0.91 0.92 0.90 0.90 0.96 1.04 1.08 1.15 1.20 1.30 1.39 1.46
1.73 1.75 1.86 1.92 1.99 1.89 1.69 1.57 1.53 1.46 1.48 1.51 1.47 1.46 1.44 1.41 1.38 1.32 1.17 0.99 0.93 0.87 0.87 0.88 0.81 0.79 0.72 0.70 0.74 0.72 0.74 0.76 0.75 0.77 0.80 0.87 0.94 0.98 0.97 1.07 1.06 1.12 1.16
1.92 1.86 1.94 1.99 2.00 1.79 1.55 1.51 1.49 1.52 1.59 1.58 1.65 1.63 1.54 1.44 1.40 1.25 0.99 0.89 0.85 0.78 0.82 0.86 0.74 0.65 0.59 0.57 0.61 0.62 0.63 0.65 0.65 0.70 0.70 0.72 0.75 0.79 0.81 0.90 0.91 0.94 0.99
1.89 1.94 2.00 1.90 1.94 1.70 1.42 1.37 1.49 1.58 1.60 1.67 1.75 1.69 1.65 1.64 1.48 1.19 0.88 0.77 0.74 0.76 0.77 0.70 0.60 0.55 0.50 0.51 0.53 0.54 0.57 0.56 0.57 0.59 0.59 0.58 0.57 0.59 0.60 0.70 0.77 0.78 0.76
1.83 1.95 2.01 1.94 1.92 1.69 1.43 1.34 1.34 1.53 1.60 1.57 1.58 1.62 1.62 1.59 1.47 1.09 0.80 0.74 0.73 0.72 0.66 0.59 0.52 0.51 0.52 0.52 0.51 0.50 0.50 0.52 0.56 0.56 0.56 0.56 0.55 0.55 0.54 0.54 0.57 0.58 0.59
1.90 1.92 2.00 2.02 1.96 1.73 1.39 1.42 1.45 1.41 1.36 1.42 1.57 1.62 1.61 1.56 1.35 1.00 0.82 0.74 0.68 0.64 0.59 0.54 0.52 0.53 0.52 0.50 0.52 0.51 0.52 0.53 0.50 0.50 0.50 0.51 0.51 0.49 0.48 0.48 0.50 0.50 0.50
1.69 1.87 1.99 1.90 1.91 1.74 1.75 1.50 1.44 1.47 1.43 1.46 1.53 1.59 1.60 1.49 1.17 0.95 0.79 0.75 0.66 0.59 0.57 0.54 0.53 0.56 0.54 0.56 0.55 0.54 0.52 0.48 0.47 0.48 0.47 0.46 0.48 0.47 0.47 0.47 0.46 0.46 0.44
1.86 1.92 1.98 1.89 1.90 1.84 1.68 1.51 1.50 1.54 1.46 1.46 1.50 1.50 1.48 1.28 0.98 0.78 0.75 0.68 0.61 0.60 0.55 0.53 0.55 0.56 0.56 0.56 0.55 0.53 0.49 0.47 0.44 0.44 0.43 0.42 0.40 0.37 0.36 0.35 0.35 0.34 0.36
1.87 1.73 1.70 1.80 1.75 1.55 1.62 1.53 1.49 1.47 1.47 1.54 1.56 1.52 1.35 1.07 0.85 0.77 0.68 0.64 0.59 0.57 0.53 0.54 0.56 0.56 0.59 0.57 0.52 0.47 0.41 0.40 0.39 0.38 0.32 0.32 0.34 0.32 0.33 0.33 0.33 0.36 0.38
1.77 1.60 1.57 1.65 1.55 1.48 1.51 1.51 1.44 1.38 1.32 1.30 1.29 1.24 1.14 0.93 0.86 0.76 0.70 0.65 0.60 0.56 0.57 0.54 0.50 0.53 0.55 0.52 0.49 0.47 0.45 0.40 0.34 0.29 0.29 0.30 0.28 0.29 0.31 0.31 0.33 0.35 0.38
1.66 1.59 1.60 1.64 1.57 1.50 1.44 1.42 1.34 1.28 1.21 1.20 1.18 1.10 0.91 0.88 0.80 0.74 0.68 0.63 0.56 0.53 0.54 0.53 0.53 0.53 0.48 0.40 0.39 0.39 0.37 0.31 0.26 0.28 0.27 0.25 0.26 0.27 0.28 0.32 0.33 0.35 0.37
1.71 1.69 1.56 1.67 1.62 1.48 1.38 1.36 1.35 1.32 1.26 1.19 1.09 0.89 0.86 0.86 0.76 0.67 0.61 0.57 0.50 0.46 0.45 0.45 0.45 0.43 0.41 0.37 0.38 0.35 0.33 0.28 0.27 0.27 0.25 0.25 0.24 0.25 0.30 0.33 0.34 0.35 0.34
1.72 1.72 1.72 1.70 1.63 1.59 1.42 1.41 1.40 1.32 1.19 1.09 0.95 0.91 0.87 0.80 0.71 0.65 0.58 0.53 0.45 0.43 0.43 0.44 0.45 0.43 0.40 0.36 0.37 0.35 0.27 0.26 0.26 0.23 0.25 0.24 0.24 0.29 0.33 0.32 0.33 0.33 0.33
1.67 1.65 1.69 1.78 1.69 1.61 1.52 1.45 1.36 1.20 1.07 1.00 0.97 0.91 0.86 0.79 0.73 0.66 0.57 0.48 0.43 0.43 0.44 0.44 0.44 0.39 0.37 0.38 0.40 0.32 0.28 0.27 0.25 0.24 0.23 0.25 0.30 0.32 0.33 0.32 0.31 0.31 0.33
Wind_Speed
11 12 13 12 11 11 10 12 12 10 8 7 8 7 6 5 6 6 7 7 8 9 10 11 11 12 11 11 11 12 12 13 14 15 16 16 16 16 15 17 18 18 18
9 15 14 13 11 10 10 11 13 11 9 9 8 6 5 7 7 7 8 9 9 11 12 12 13 12 12 12 12 13 13 14 15 15 14 12 11 12 13 14 15 17 18
9 13 14 13 12 10 9 10 12 12 11 9 8 8 7 8 8 8 9 9 10 11 12 12 12 12 12 13 13 13 13 14 13 13 12 11 11 11 13 14 15 17 18
8 10 13 13 12 10 9 9 11 11 11 10 10 9 8 8 8 8 9 9 9 10 11 11 12 12 13 13 13 14 15 14 14 13 14 14 14 14 14 15 16 17 19
9 9 11 13 12 11 10 9 10 10 11 11 11 10 9 8 8 7 6 7 9 11 12 12 13 12 13 13 13 14 14 13 13 14 14 15 14 13 15 17 18 18 19
12 12 11 13 12 11 10 9 10 10 9 10 10 10 9 6 6 6 6 8 10 12 12 13 13 13 12 12 13 14 15 14 15 15 16 17 18 19 19 20 20 20 21
14 13 13 14 13 12 11 11 10 10 10 9 9 9 8 7 6 6 7 9 11 11 11 12 12 12 12 13 14 15 15 15 16 16 17 17 18 19 19 20 20 20 20
13 13 14 14 13 12 11 11 11 11 10 9 9 9 7 7 6 6 7 9 9 10 10 11 11 12 13 14 15 15 15 15 15 15 16 17 18 19 20 21 21 21 21
14 14 15 15 13 12 12 12 12 11 10 9 9 9 7 6 6 7 7 8 10 10 10 11 12 13 15 15 15 15 15 16 15 16 17 19 20 21 21 20 20 20 19
15 16 16 15 14 12 12 12 12 11 10 10 9 9 7 6 6 7 8 9 10 11 11 12 14 15 17 18 17 17 17 16 17 18 19 20 20 19 19 19 19 19 19
16 16 16 15 14 13 12 11 12 11 10 10 9 8 7 7 6 7 9 9 10 12 13 14 16 18 18 17 17 17 17 18 18 18 19 18 18 18 18 18 18 19 19
17 17 17 16 15 14 13 11 11 11 11 11 10 9 8 7 7 8 9 10 11 13 14 15 16 17 16 16 16 16 16 16 16 16 17 17 17 17 18 18 19 19 20
19 18 17 17 16 15 14 13 12 12 12 12 11 10 9 8 8 9 10 11 12 13 14 15 14 15 15 14 15 16 15 15 15 16 16 17 18 19 20 19 20 21 21
21 21 20 20 18 17 16 16 14 14 13 13 12 11 10 9 9 10 11 12 13 13 13 13 13 13 14 14 14 16 15 15 15 16 16 17 18 18 19 19 20 21 21
24 23 24 23 22 20 17 18 17 15 14 14 13 12 11 11 10 11 12 13 13 13 13 12 13 14 14 15 15 15 15 15 15 16 16 17 18 19 20 20 21 21 21
27 27 27 26 26 23 22 20 16 16 15 13 12 13 12 11 11 12 13 13 12 12 12 12 13 14 15 15 15 15 15 15 16 17 17 18 19 19 21 21 22 22 22
30 31 30 30 29 26 25 24 22 18 16 16 15 15 14 14 13 13 13 12 11 12 12 13 13 14 14 14 15 15 16 16 17 18 19 20 21 21 22 23 23 24 25
31 32 33 31 31 29 27 26 25 23 21 19 18 17 16 16 15 15 14 13 12 12 12 12 13 13 14 15 15 16 17 18 19 20 21 22 23 24 25 25 26 26 27
33 34 35 34 34 31 33 30 29 25 23 22 22 20 19 18 17 16 14 14 13 12 12 12 13 13 14 15 16 17 18 19 21 22 23 24 25 26 26 27 28 29 30
30 36 37 33 34 32 31 32 29 26 25 25 26 25 21 19 17 16 15 14 13 13 13 13 14 14 15 17 18 19 20 21 22 23 25 26 26 27 28 29 29 30 31
14 17 23 26 27 29 28 26 24 23 21 21 22 22 20 18 17 15 15 14 14 14 14 14 15 16 17 18 19 20 21 22 23 25 26 27 28 28 29 30 30 31 32
13 18 21 19 22 23 24 22 21 19 18 18 18 18 18 18 16 16 16 15 15 15 15 16 17 17 18 19 20 20 21 23 24 26 27 28 29 29 30 31 32 32 32
14 17 20 19 19 20 20 20 19 19 19 19 19 18 19 18 17 17 16 16 16 16 16 17 17 18 19 20 20 21 22 24 26 27 29 29 30 30 31 32 32 32 32
16 18 22 21 20 20 20 20 20 21 20 20 19 19 19 18 18 18 17 17 16 17 17 17 18 19 20 20 20 21 23 25 27 29 30 30 31 32 32 32 32 32 30
19 19 25 24 22 22 22 22 22 21 22 21 20 20 19 19 19 18 18 17 17 17 18 19 19 20 20 20 21 22 24 27 28 30 30 31 32 32 32 32 32 30 29
24 23 24 27 25 24 24 24 23 23 23 22 22 20 20 20 19 19 18 18 18 18 19 19 20 20 20 21 21 24 26 28 29 30 31 31 31 32 32 32 31 30 28
Wind_Direction
215 212 211 214 218 224 231 230 228 225 229 220 225 229 228 232 247 257 275 283 286 293 301 301 298 307 304 300 299 297 298 301 304 303 306 292 272 276 279 280 281 277 279
227 212 212 216 220 226 233 229 226 227 225 224 226 233 230 239 253 265 277 288 290 294 303 301 302 303 304 302 301 299 299 300 302 306 311 305 289 285 279 280 281 281 284
217 205 213 214 218 224 227 224 221 224 230 232 234 234 238 245 255 270 279 290 298 301 306 307 307 304 306 305 303 303 302 301 302 299 304 301 296 292 289 285 285 287 288
205 212 209 211 215 220 224 219 217 219 222 225 228 233 238 248 261 276 285 292 301 307 312 312 311 309 308 307 305 304 303 301 296 294 295 299 293 291 289 290 291 291 292
220 217 214 214 216 219 220 218 217 215 220 223 226 231 237 251 263 274 286 301 309 312 311 310 309 309 311 309 308 309 309 303 298 292 293 295 300 299 290 294 295 294 295
226 228 222 216 212 214 218 219 215 215 218 222 226 229 234 247 267 274 290 303 311 313 314 313 311 308 308 308 308 307 305 303 301 297 296 297 296 295 295 295 295 292 298
229 230 220 212 209 213 219 220 217 218 219 223 223 226 234 245 258 270 291 307 316 319 321 321 316 318 314 312 307 308 306 303 298 297 297 297 298 299 299 298 296 292 294
223 219 208 205 207 214 219 223 221 217 217 218 219 224 232 248 259 274 294 309 317 323 326 328 329 326 323 317 314 311 307 305 303 303 301 300 300 301 299 298 296 294 292
214 211 206 207 211 217 224 221 218 215 214 216 221 222 231 245 261 277 294 301 317 318 324 326 327 326 324 321 317 313 311 308 306 303 303 304 302 301 299 298 296 295 290
214 210 209 212 215 220 220 217 218 214 215 216 216 221 232 245 264 278 296 307 312 316 312 321 325 323 321 317 314 312 308 309 308 306 306 306 305 305 304 300 300 297 291
216 212 213 216 217 216 214 214 213 215 211 211 211 223 234 249 262 282 301 307 311 313 315 315 321 323 323 321 316 314 310 307 306 305 306 308 307 308 306 304 303 301 297
217 216 215 217 217 216 214 212 211 209 207 210 215 222 237 250 267 282 299 308 312 313 315 318 320 323 323 324 324 321 318 314 312 312 312 312 314 312 312 308 305 302 300
218 220 219 216 216 218 217 213 209 208 210 215 222 230 241 255 270 284 298 306 311 313 318 320 322 324 325 323 329 330 325 323 320 318 315 314 313 311 309 309 307 306 304
223 223 222 218 218 217 219 217 214 213 217 222 227 235 243 259 274 284 296 302 308 312 315 318 324 327 333 333 332 333 331 326 324 323 321 318 316 316 315 313 312 311 308
227 225 223 221 221 219 224 221 219 221 226 229 234 239 245 258 274 288 298 302 307 312 313 318 322 325 328 329 329 331 332 332 331 329 327 325 322 319 317 315 313 311 309
230 229 225 224 222 225 221 216 221 224 228 234 238 245 253 261 276 289 298 302 306 309 312 316 321 325 327 327 328 329 331 331 331 329 327 326 324 322 321 318 316 312 310
235 232 229 226 220 220 220 219 221 226 231 238 244 250 255 259 275 288 294 299 301 306 310 316 320 323 326 328 329 328 328 329 329 327 326 325 323 321 320 318 316 314 311
240 236 229 223 219 219 220 223 226 228 235 241 249 249 254 261 274 283 288 293 295 302 308 312 316 320 324 326 326 326 325 326 326 325 323 322 320 319 318 317 315 314 311
243 233 223 225 219 230 227 228 226 231 237 243 245 249 254 259 270 276 280 285 289 295 302 308 314 316 319 321 322 322 322 323 323 323 321 320 319 318 317 316 314 312 310
236 229 230 228 223 220 225 216 222 235 243 246 245 244 246 256 263 269 273 278 283 288 295 302 309 313 314 317 318 318 319 320 321 320 320 319 319 318 317 316 314 313 311
185 183 190 189 197 199 205 216 224 234 237 240 233 233 238 249 258 262 268 273 278 283 290 297 304 308 310 313 315 316 317 318 319 319 320 319 319 318 318 317 315 313 312
180 175 179 187 190 198 207 215 219 224 228 225 226 234 239 249 256 261 266 271 278 283 287 293 299 305 308 310 311 313 316 317 319 319 319 319 318 318 318 317 316 314 313
193 191 194 197 200 204 209 216 222 226 228 230 232 240 241 250 256 261 265 271 278 282 287 292 298 301 305 308 310 312 315 316 318 318 318 318 318 318 317 316 316 315 314
216 212 208 212 212 215 220 225 229 231 231 233 238 242 244 251 256 260 266 272 277 281 286 291 296 300 302 305 308 313 314 316 318 318 318 317 318 318 317 317 316 315 315
225 225 219 221 223 227 229 231 233 234 235 238 242 245 249 254 257 262 267 272 276 280 286 290 294 298 300 303 306 311 314 317 318 318 318 318 318 318 318 317 317 315 315
232 230 227 225 230 232 232 234 235 238 239 242 245 249 252 255 258 263 268 271 276 281 286 290 293 296 299 301 305 310 314 317 318 319 320 319 319 319 319 318 316 315 314